[[{"header":{"parameterUnit":"m.s-1","parameterCategory":1,"la1":30.2991,"la2":30.254,"lo1":-89.0895,"lo2":-89.0444,"dy":0.0017,"dx":0.0017,"nx":28,"ny":28,"refTime":"2023-08-31T21:00:00:Z","depth":0,"parameterNumber":2,"parameterNumberName":"U-component_of_WINDS"},"data":[0,0,0,0,0,0,0,0,0,0,0,0,0,0,0,0,0,0,0,0,0,0,0,0,0,0,0,0,0,0,0,0,0,0,0,0,0,0,0,0,0,0,0,0,0,0,0,0,0,0,0,0,0,0,0,0,0,0,-2.5821,-2.582,0,-2.5755,-2.5754,-2.5753,-2.5656,-2.5654,-2.5653,-2.5651,-2.5584,-2.5584,-2.5584,0,0,0,0,0,0,0,0,0,0,0,0,0,-2.5862,-2.5862,-2.5821,-2.582,-2.5819,-2.5755,-2.5754,-2.5753,-2.5656,-2.5654,-2.5652,-2.565,-2.5584,-2.5584,-2.5584,0,0,0,0,0,0,0,0,0,0,0,0,0,-2.5825,-2.5862,-2.5821,-2.5763,-2.5757,-2.5755,-2.5754,-2.5753,-2.5657,-2.5654,-2.5652,-2.5649,-2.5584,-2.5584,-2.5584,-2.5633,0,0,-2.5583,-2.5583,0,0,0,0,0,0,0,0,-2.5827,-2.5824,-2.5773,-2.5767,-2.5761,-2.5711,-2.5744,-2.5713,-2.5657,-2.5695,-2.5651,-2.5648,-2.5629,-2.5625,-2.5618,-2.563,-2.5627,-2.5583,-2.5583,-2.5583,-2.5583,0,0,0,0,0,0,0,-2.583,-2.5826,-2.5795,-2.5772,-2.5765,-2.574,-2.5732,-2.5738,-2.5677,-2.5692,-2.5684,-2.5678,-2.5625,-2.5618,-2.5615,-2.5626,-2.5583,-2.5583,-2.5583,-2.5582,-2.5672,-2.5674,0,0,0,0,0,0,-2.5841,-2.5829,-2.5797,-2.5793,-2.5788,-2.5741,-2.5732,-2.573,-2.5677,-2.5666,-2.568,-2.5674,-2.562,-2.5616,-2.5613,-2.5664,-2.5583,-2.5582,-2.5582,-2.5669,-2.5672,-2.5675,0,0,0,0,0,0,-2.5842,-2.5839,-2.5799,-2.5809,-2.5802,-2.5743,-2.5741,-2.573,-2.5723,-2.5668,-2.5657,-2.5685,-2.5618,-2.5613,-2.5628,-2.566,-2.5582,-2.5582,-2.5666,-2.567,-2.5674,-2.5769,0,0,0,0,0,0,-2.5844,-2.584,-2.5859,-2.581,-2.5802,-2.5816,-2.5743,-2.573,-2.5723,-2.5713,-2.5669,-2.5659,-2.5615,-2.5629,-2.5628,-2.5658,-2.5582,-2.5663,-2.5668,-2.5672,-2.5762,-2.5775,-2.5786,0,0,0,0,0,-2.5846,-2.5889,-2.586,-2.5857,-2.5824,-2.5819,-2.5814,-2.5762,-2.5726,-2.5743,-2.5707,-2.5661,-2.5658,-2.5631,-2.5629,-2.566,-2.5661,-2.5666,-2.5672,-2.5757,-2.5773,-2.5786,0,0,0,0,0,0,-2.5944,-2.5882,-2.5849,-2.5878,-2.5854,-2.5802,-2.5823,-2.5781,-2.5768,-2.576,-2.5696,-2.5687,-2.5709,-2.5686,-2.5658,-2.5703,-2.5652,-2.5657,-2.5717,-2.5732,-2.5743,-2.5747,-2.5582,0,0,0,0,0,-2.5969,-2.5971,-2.5916,-2.5947,-2.5936,-2.5882,-2.5878,-2.584,-2.5813,-2.5802,-2.5768,-2.5743,-2.5736,-2.5733,-2.5724,-2.5759,-2.5746,-2.5779,-2.5791,-2.5802,-2.5806,-2.582,-2.5833,-2.5694,-2.5694,-2.5693,0,0,-2.6021,-2.5987,-2.5992,-2.5966,-2.5943,-2.5944,-2.5874,-2.588,-2.588,-2.5803,-2.5814,-2.5788,-2.5756,-2.5781,-2.579,-2.5762,-2.5842,-2.5809,-2.5817,-2.5816,-2.5827,-2.584,-2.5852,-2.5698,-2.5697,-2.5696,0,0,-2.6116,-2.6091,-2.6112,-2.6091,-2.6056,-2.6019,-2.6025,-2.5979,-2.5958,-2.5968,-2.5909,-2.5909,-2.5899,-2.5877,-2.5865,-2.595,-2.5905,-2.5949,-2.6011,-2.6024,-2.6035,-2.6045,-2.6071,-2.6082,-2.5954,-2.5955,-2.5955,0,-2.6184,-2.6184,-2.6129,-2.6137,-2.6126,-2.6056,-2.6076,-2.6058,-2.6023,-2.6016,-2.5987,-2.597,-2.5944,-2.5961,-2.5981,-2.5975,-2.5977,-2.5953,-2.6038,-2.6047,-2.6055,-2.608,-2.609,-2.596,-2.5959,-2.5959,-2.5958,0,-2.6269,-2.627,-2.6291,-2.6257,-2.6249,-2.6264,-2.6209,-2.6207,-2.617,-2.6136,-2.6146,-2.6112,-2.6093,-2.6095,-2.6059,-2.6105,-2.6089,-2.605,-2.5996,-2.6074,-2.6096,-2.6106,-2.5967,-2.5965,-2.5964,-2.5963,0,0,-2.6423,-2.6357,-2.6366,-2.6348,-2.6305,-2.6304,-2.6315,-2.6295,-2.6293,-2.6272,-2.6277,-2.6269,-2.6232,-2.6218,-2.618,-2.6192,-2.6257,-2.6151,-2.6149,-2.6169,-2.6302,-2.6329,-2.6342,-2.6228,-2.6229,-2.6231,-2.6303,0,-2.6507,-2.652,-2.647,-2.6496,-2.6494,-2.6427,-2.6436,-2.641,-2.6378,-2.6372,-2.6337,-2.6331,-2.6284,-2.6274,-2.6284,-2.6247,-2.6282,-2.6242,-2.623,-2.623,-2.6237,-2.6354,-2.6383,-2.6454,-2.6312,-2.6313,-2.6315,0,-2.6606,-2.6587,-2.6613,-2.6565,-2.6563,-2.6572,-2.6548,-2.6544,-2.6512,-2.6488,-2.6472,-2.6427,-2.6432,-2.6382,-2.6387,-2.636,-2.6353,-2.6334,-2.6335,-2.633,-2.6275,-2.6349,-2.6475,-2.6485,-2.6328,-2.6327,-2.6326,0,-2.6712,-2.6694,-2.6706,-2.6693,-2.6639,-2.6646,-2.6624,-2.6589,-2.658,-2.656,-2.6553,-2.6535,-2.6524,-2.651,-2.646,-2.6429,-2.6469,-2.6416,-2.6447,-2.6449,-2.6457,-2.6457,-2.6581,-2.6458,-2.6457,-2.6457,-2.6457,0,-2.6808,-2.6826,-2.6752,-2.6759,-2.6776,-2.6718,-2.6736,-2.6707,-2.6677,-2.6676,-2.6619,-2.6619,-2.6554,-2.6547,-2.6509,-2.6516,-2.6513,-2.6492,-2.6481,-2.6496,-2.6498,-2.6488,-2.6481,-2.646,-2.6459,-2.6459,-2.6458,0,-2.6929,-2.688,-2.6888,-2.6836,-2.6823,-2.6838,-2.6792,-2.6796,-2.676,-2.676,-2.6757,-2.6701,-2.6689,-2.6638,-2.6615,-2.6589,-2.6609,-2.6589,-2.6619,-2.6612,-2.6644,-2.6641,-2.6764,-2.6776,-2.6648,-2.665,-2.6651,0,-2.6992,-2.7004,-2.6952,-2.6947,-2.6927,-2.6921,-2.691,-2.6853,-2.6845,-2.6808,-2.6816,-2.6799,-2.6783,-2.6767,-2.6724,-2.6705,-2.6683,-2.6727,-2.6679,-2.6693,-2.6679,-2.6678,-2.6677,-2.6737,-2.6739,-2.674,-2.6741,0,-2.7109,-2.7084,-2.7071,-2.705,-2.7039,-2.702,-2.6997,-2.6996,-2.6932,-2.6926,-2.6913,-2.69,-2.6875,-2.6859,-2.6832,-2.6808,-2.6763,-2.6757,-2.6762,-2.6776,-2.6791,-2.678,-2.6644,-2.6754,-2.6752,-2.6751,-2.6751,-2.675,-2.72,-2.7206,-2.717,-2.7157,-2.7134,-2.7113,-2.7113,-2.7077,-2.7065,-2.704,-2.7007,-2.6998,-2.6963,-2.6923,-2.6902,-2.6893,-2.6868,-2.6877,-2.6878,-2.6881,-2.6886,-2.6795,-2.6888,-2.6888,-2.6887,-2.6887,-2.6887,0,-2.7311,-2.7284,-2.7273,-2.7242,-2.7231,-2.7191,-2.7163,-2.7156,-2.7149,-2.712,-2.7105,-2.7088,-2.7071,-2.7027,-2.7005,-2.7006,-2.6984,-2.7002,-2.7,-2.6994,-2.6912,-2.6907,-2.7019,-2.7019,-2.7019,-2.7019,-2.7019,-2.7019,-2.7367,-2.7374,-2.7345,-2.7338,-2.7311,-2.7301,-2.7288,-2.7268,-2.7244,-2.7229,-2.7214,-2.7185,-2.7149,-2.7124,-2.7106,-2.7093,-2.7086,-2.711,-2.709,-2.7013,-2.7,-2.6988,-2.6984,-2.7109,-2.711,-2.7172,-2.7173,-2.7173]},{"header":{"parameterUnit":"m.s-1","parameterCategory":1,"la1":30.2991,"la2":30.254,"lo1":-89.0895,"lo2":-89.0444,"dy":0.0017,"dx":0.0017,"nx":28,"ny":28,"refTime":"2023-08-31T21:00:00:Z","depth":0,"parameterNumber":3,"parameterNumberName":"V-component_of_WINDS"},"data":[0,0,0,0,0,0,0,0,0,0,0,0,0,0,0,0,0,0,0,0,0,0,0,0,0,0,0,0,0,0,0,0,0,0,0,0,0,0,0,0,0,0,0,0,0,0,0,0,0,0,0,0,0,0,0,0,0,0,-1.5234,-1.5234,0,-1.5245,-1.5245,-1.5245,-1.527,-1.5271,-1.5271,-1.5271,-1.528,-1.5279,-1.5279,0,0,0,0,0,0,0,0,0,0,0,0,0,-1.523,-1.523,-1.5234,-1.5234,-1.5234,-1.5245,-1.5245,-1.5245,-1.527,-1.5271,-1.5271,-1.5272,-1.528,-1.5279,-1.5279,0,0,0,0,0,0,0,0,0,0,0,0,0,-1.5235,-1.523,-1.5234,-1.5248,-1.5249,-1.5245,-1.5245,-1.5245,-1.527,-1.5271,-1.5271,-1.5272,-1.528,-1.5279,-1.5279,-1.5261,0,0,-1.5278,-1.5278,0,0,0,0,0,0,0,0,-1.5235,-1.5235,-1.5246,-1.5247,-1.5249,-1.5257,-1.5247,-1.5251,-1.527,-1.5262,-1.5272,-1.5272,-1.5271,-1.5272,-1.5272,-1.5262,-1.5262,-1.5278,-1.5277,-1.5277,-1.5277,0,0,0,0,0,0,0,-1.5234,-1.5235,-1.5238,-1.5246,-1.5248,-1.5252,-1.5254,-1.5247,-1.5262,-1.5263,-1.5264,-1.5266,-1.5272,-1.5272,-1.5272,-1.5262,-1.5278,-1.5277,-1.5277,-1.5277,-1.5234,-1.5233,0,0,0,0,0,0,-1.5232,-1.5234,-1.5238,-1.5239,-1.5244,-1.5252,-1.5253,-1.5253,-1.5262,-1.5264,-1.5265,-1.5267,-1.5272,-1.5273,-1.5273,-1.525,-1.5277,-1.5277,-1.5277,-1.5235,-1.5233,-1.5232,0,0,0,0,0,0,-1.5232,-1.5233,-1.5238,-1.5237,-1.5238,-1.5251,-1.5251,-1.5253,-1.5253,-1.5264,-1.5266,-1.5263,-1.5273,-1.5273,-1.5263,-1.525,-1.5277,-1.5276,-1.5236,-1.5234,-1.5233,-1.5205,0,0,0,0,0,0,-1.5232,-1.5232,-1.5227,-1.5237,-1.5238,-1.5229,-1.525,-1.5253,-1.5253,-1.5256,-1.5262,-1.5264,-1.5274,-1.5264,-1.5263,-1.525,-1.5276,-1.5237,-1.5235,-1.5233,-1.5207,-1.5203,-1.52,0,0,0,0,0,-1.5232,-1.5219,-1.5227,-1.5227,-1.5232,-1.5229,-1.5229,-1.5241,-1.5252,-1.5246,-1.5252,-1.5264,-1.5252,-1.5262,-1.5262,-1.5249,-1.5238,-1.5236,-1.5234,-1.5209,-1.5204,-1.52,0,0,0,0,0,0,-1.5207,-1.5221,-1.5229,-1.522,-1.5223,-1.5233,-1.5226,-1.5236,-1.5236,-1.5238,-1.5252,-1.5253,-1.524,-1.5244,-1.5255,-1.523,-1.5247,-1.5244,-1.5228,-1.5224,-1.522,-1.5218,-1.5276,0,0,0,0,0,-1.52,-1.5198,-1.521,-1.52,-1.5201,-1.5213,-1.5212,-1.5221,-1.5225,-1.5226,-1.5232,-1.5233,-1.523,-1.5227,-1.5225,-1.5208,-1.5208,-1.5199,-1.5195,-1.5192,-1.5189,-1.5177,-1.5172,-1.5226,-1.5226,-1.5226,0,0,-1.5187,-1.5194,-1.5192,-1.5195,-1.5199,-1.5194,-1.5214,-1.5209,-1.5205,-1.5225,-1.5215,-1.5219,-1.5222,-1.5208,-1.5202,-1.521,-1.5174,-1.5189,-1.5186,-1.5185,-1.5174,-1.5169,-1.5165,-1.5224,-1.5225,-1.5225,0,0,-1.5159,-1.5165,-1.5157,-1.5159,-1.5165,-1.5172,-1.517,-1.5178,-1.5181,-1.5172,-1.5186,-1.5181,-1.5175,-1.5176,-1.5175,-1.5145,-1.5155,-1.5144,-1.5122,-1.5111,-1.5106,-1.5103,-1.5089,-1.5084,-1.5141,-1.5141,-1.5141,0,-1.5141,-1.5136,-1.515,-1.5144,-1.5143,-1.5162,-1.5151,-1.5153,-1.5156,-1.5155,-1.5165,-1.5156,-1.5159,-1.5144,-1.5136,-1.5136,-1.5132,-1.5142,-1.5106,-1.5103,-1.5099,-1.5086,-1.5081,-1.514,-1.514,-1.514,-1.514,0,-1.5112,-1.5108,-1.51,-1.5103,-1.5102,-1.5094,-1.5105,-1.5102,-1.511,-1.5115,-1.5104,-1.5109,-1.5106,-1.5103,-1.5112,-1.5088,-1.5093,-1.5104,-1.512,-1.5092,-1.508,-1.5076,-1.5137,-1.5138,-1.5138,-1.5139,0,0,-1.507,-1.508,-1.5076,-1.5076,-1.5082,-1.5079,-1.507,-1.5068,-1.5063,-1.5065,-1.5055,-1.5049,-1.5059,-1.5058,-1.5067,-1.5057,-1.5028,-1.5069,-1.5069,-1.5059,-1.4999,-1.4988,-1.4982,-1.5035,-1.5034,-1.5034,-1.4997,0,-1.5042,-1.5028,-1.504,-1.5023,-1.5018,-1.5033,-1.5025,-1.5026,-1.5031,-1.5026,-1.503,-1.5025,-1.504,-1.5039,-1.503,-1.5034,-1.5016,-1.5037,-1.5024,-1.5024,-1.5021,-1.4977,-1.4966,-1.4932,-1.4993,-1.4992,-1.4992,0,-1.5008,-1.5007,-1.499,-1.4994,-1.4993,-1.4985,-1.4982,-1.4978,-1.4979,-1.4982,-1.498,-1.499,-1.4979,-1.4996,-1.4979,-1.4993,-1.4989,-1.4989,-1.4988,-1.4986,-1.5005,-1.4971,-1.4922,-1.4915,-1.4985,-1.4985,-1.4986,0,-1.4975,-1.4971,-1.4959,-1.4959,-1.4964,-1.4958,-1.496,-1.4962,-1.4958,-1.4956,-1.4953,-1.4949,-1.4946,-1.4941,-1.4948,-1.4961,-1.4929,-1.4948,-1.4929,-1.4929,-1.4921,-1.4921,-1.4868,-1.4922,-1.4922,-1.4922,-1.4922,0,-1.4942,-1.493,-1.4944,-1.4936,-1.4922,-1.4935,-1.492,-1.4923,-1.4924,-1.4915,-1.4929,-1.4921,-1.4932,-1.4924,-1.4929,-1.4912,-1.4912,-1.4912,-1.4913,-1.491,-1.4909,-1.4906,-1.4907,-1.4921,-1.4921,-1.4921,-1.4921,0,-1.4903,-1.4912,-1.49,-1.4906,-1.4907,-1.4896,-1.49,-1.4892,-1.4897,-1.4885,-1.4883,-1.4891,-1.4881,-1.4888,-1.488,-1.4883,-1.486,-1.4866,-1.486,-1.486,-1.4841,-1.4841,-1.4781,-1.4773,-1.4835,-1.4834,-1.4834,0,-1.4881,-1.4872,-1.4876,-1.4871,-1.4872,-1.4866,-1.4862,-1.4873,-1.4868,-1.4867,-1.4858,-1.485,-1.4844,-1.4828,-1.4831,-1.4823,-1.4827,-1.4807,-1.4826,-1.4821,-1.4823,-1.4823,-1.482,-1.4802,-1.4802,-1.4801,-1.4801,0,-1.4838,-1.4842,-1.4838,-1.4833,-1.4829,-1.4826,-1.4824,-1.4819,-1.483,-1.4824,-1.4814,-1.481,-1.48,-1.479,-1.4783,-1.4783,-1.4792,-1.4795,-1.4789,-1.4784,-1.478,-1.4779,-1.4846,-1.4796,-1.4796,-1.4796,-1.4797,-1.4797,-1.4805,-1.4796,-1.4797,-1.4791,-1.479,-1.4787,-1.4779,-1.4782,-1.4775,-1.4768,-1.4775,-1.4762,-1.476,-1.4752,-1.475,-1.4739,-1.4747,-1.474,-1.4738,-1.4736,-1.4731,-1.4783,-1.4738,-1.4738,-1.4738,-1.4738,-1.4738,0,-1.4761,-1.4762,-1.4756,-1.4752,-1.4745,-1.4756,-1.4754,-1.4747,-1.4736,-1.4734,-1.4728,-1.4715,-1.4705,-1.4707,-1.4697,-1.4688,-1.4691,-1.4685,-1.4684,-1.4683,-1.4726,-1.473,-1.4682,-1.4682,-1.4682,-1.4682,-1.4682,-1.4682,-1.4737,-1.4722,-1.4726,-1.471,-1.4711,-1.4699,-1.4696,-1.4693,-1.469,-1.4676,-1.4668,-1.467,-1.4668,-1.4657,-1.4648,-1.4648,-1.4643,-1.4634,-1.4635,-1.4675,-1.4681,-1.4686,-1.469,-1.4633,-1.4633,-1.4593,-1.4592,-1.4592]}]]